[[{"header":{"parameterUnit":"m.s-1","parameterCategory":1,"la1":30.2991,"la2":30.254,"lo1":-89.0895,"lo2":-89.0444,"dy":0.0017,"dx":0.0017,"nx":28,"ny":28,"refTime":"2024-10-16T21:00:00:Z","depth":0,"parameterNumber":2,"parameterNumberName":"U-component_of_WINDS"},"data":[0,0,0,0,0,0,0,0,0,0,0,0,0,0,0,0,0,0,0,0,0,0,0,0,0,0,0,0,0,0,0,0,0,0,0,0,0,0,0,0,0,0,0,0,0,0,0,0,0,0,0,0,0,0,0,0,0,0,-1.6396,-1.6396,0,-1.6397,-1.6397,-1.6397,-1.6356,-1.6355,-1.6354,-1.6353,-1.6355,-1.6356,-1.6357,0,0,0,0,0,0,0,0,0,0,0,0,0,-1.6359,-1.636,-1.6396,-1.6396,-1.6396,-1.6397,-1.6397,-1.6397,-1.6356,-1.6355,-1.6353,-1.6352,-1.6354,-1.6356,-1.6357,0,0,0,0,0,0,0,0,0,0,0,0,0,-1.637,-1.6361,-1.6396,-1.6376,-1.6374,-1.6397,-1.6397,-1.6397,-1.6356,-1.6355,-1.6353,-1.6351,-1.6354,-1.6356,-1.6357,-1.64,0,0,-1.6362,-1.6363,0,0,0,0,0,0,0,0,-1.6369,-1.6371,-1.6379,-1.6377,-1.6375,-1.6375,-1.6385,-1.6398,-1.6357,-1.6363,-1.6353,-1.6351,-1.6363,-1.6364,-1.6367,-1.64,-1.6401,-1.6362,-1.6363,-1.6364,-1.6364,0,0,0,0,0,0,0,-1.6368,-1.6371,-1.6397,-1.6379,-1.6377,-1.6367,-1.6366,-1.6387,-1.6372,-1.6362,-1.6359,-1.636,-1.6361,-1.6366,-1.6367,-1.6401,-1.6362,-1.6364,-1.6365,-1.6365,-1.6468,-1.647,0,0,0,0,0,0,-1.637,-1.637,-1.6397,-1.6397,-1.6368,-1.6369,-1.6368,-1.6377,-1.6372,-1.637,-1.6361,-1.6358,-1.6364,-1.6365,-1.6367,-1.6417,-1.6364,-1.6365,-1.6366,-1.6466,-1.6469,-1.647,0,0,0,0,0,0,-1.637,-1.6373,-1.6397,-1.6383,-1.6385,-1.6371,-1.6381,-1.6377,-1.6382,-1.6371,-1.6368,-1.6369,-1.6363,-1.6365,-1.6392,-1.6416,-1.6366,-1.6368,-1.6464,-1.6467,-1.647,-1.6517,0,0,0,0,0,0,-1.6369,-1.6373,-1.6389,-1.6383,-1.6386,-1.6422,-1.6382,-1.6379,-1.6385,-1.638,-1.6377,-1.6375,-1.6362,-1.639,-1.6394,-1.6418,-1.6369,-1.6462,-1.6466,-1.6469,-1.6514,-1.6521,-1.6528,0,0,0,0,0,-1.6368,-1.6403,-1.639,-1.6394,-1.6406,-1.6423,-1.6425,-1.6408,-1.6387,-1.6403,-1.6396,-1.6375,-1.6413,-1.6393,-1.6397,-1.6422,-1.6461,-1.6465,-1.6468,-1.651,-1.652,-1.6528,0,0,0,0,0,0,-1.6413,-1.6402,-1.6388,-1.6423,-1.6424,-1.6416,-1.6436,-1.6419,-1.6427,-1.6422,-1.6401,-1.6401,-1.6432,-1.6429,-1.6407,-1.6463,-1.6433,-1.6438,-1.6464,-1.6472,-1.648,-1.648,-1.637,0,0,0,0,0,-1.6427,-1.6442,-1.6432,-1.6463,-1.6465,-1.645,-1.6457,-1.6444,-1.6445,-1.6446,-1.6441,-1.6443,-1.6455,-1.6463,-1.6474,-1.6513,-1.6511,-1.6532,-1.6539,-1.6545,-1.655,-1.6569,-1.6578,-1.6483,-1.6483,-1.6483,0,0,-1.6457,-1.6452,-1.6463,-1.6472,-1.6472,-1.6488,-1.6451,-1.647,-1.6481,-1.6449,-1.6474,-1.647,-1.6471,-1.6504,-1.6518,-1.6503,-1.6575,-1.655,-1.6555,-1.6556,-1.6574,-1.6583,-1.6591,-1.6486,-1.6486,-1.6485,0,0,-1.6518,-1.6517,-1.6542,-1.6542,-1.6542,-1.6532,-1.6538,-1.6533,-1.6529,-1.6554,-1.6529,-1.6543,-1.6564,-1.6566,-1.6569,-1.663,-1.6611,-1.6634,-1.6672,-1.6692,-1.6699,-1.6706,-1.6727,-1.6735,-1.6639,-1.6639,-1.6639,0,-1.6555,-1.6578,-1.6558,-1.6578,-1.6583,-1.6553,-1.6579,-1.658,-1.6583,-1.6587,-1.657,-1.6596,-1.6594,-1.6627,-1.6642,-1.6645,-1.6652,-1.6635,-1.6699,-1.6706,-1.6712,-1.6732,-1.674,-1.6642,-1.6641,-1.6641,-1.6641,0,-1.6623,-1.6639,-1.666,-1.6663,-1.667,-1.6693,-1.6677,-1.6686,-1.6672,-1.6664,-1.6689,-1.6686,-1.6695,-1.6702,-1.6689,-1.6733,-1.6723,-1.6703,-1.6672,-1.6724,-1.6743,-1.675,-1.6646,-1.6645,-1.6644,-1.6643,0,0,-1.6715,-1.6705,-1.6713,-1.6714,-1.6711,-1.6723,-1.6744,-1.6752,-1.6761,-1.6764,-1.6781,-1.68,-1.678,-1.6785,-1.6771,-1.6788,-1.6836,-1.6766,-1.6765,-1.6779,-1.6884,-1.69,-1.6909,-1.6823,-1.6825,-1.6826,-1.6884,0,-1.6774,-1.681,-1.6792,-1.683,-1.6844,-1.6815,-1.6834,-1.6834,-1.6826,-1.6838,-1.683,-1.6843,-1.6817,-1.6819,-1.6835,-1.6827,-1.6857,-1.6823,-1.684,-1.6841,-1.6841,-1.6919,-1.6935,-1.699,-1.6891,-1.6893,-1.6893,0,-1.6849,-1.6854,-1.6893,-1.6886,-1.6891,-1.6908,-1.6914,-1.6925,-1.6924,-1.6918,-1.6922,-1.6904,-1.6924,-1.6894,-1.6921,-1.6898,-1.6904,-1.6901,-1.6903,-1.6904,-1.687,-1.6922,-1.7007,-1.7016,-1.6905,-1.6904,-1.6903,0,-1.6912,-1.6928,-1.6954,-1.6955,-1.6948,-1.696,-1.6958,-1.6955,-1.6961,-1.6966,-1.697,-1.6978,-1.6982,-1.6988,-1.6973,-1.6952,-1.7003,-1.6971,-1.6998,-1.6999,-1.7011,-1.701,-1.7098,-1.7014,-1.7014,-1.7014,-1.7014,0,-1.698,-1.7005,-1.6982,-1.6997,-1.7024,-1.7003,-1.7031,-1.7025,-1.7023,-1.7037,-1.7013,-1.7027,-1.7006,-1.7017,-1.7006,-1.703,-1.7032,-1.7028,-1.7024,-1.703,-1.7031,-1.7034,-1.703,-1.7016,-1.7015,-1.7015,-1.7015,0,-1.7056,-1.7041,-1.7066,-1.7057,-1.7055,-1.7075,-1.7067,-1.7081,-1.7071,-1.709,-1.7093,-1.7078,-1.709,-1.7076,-1.7087,-1.7079,-1.7112,-1.7103,-1.7113,-1.711,-1.7138,-1.7136,-1.7232,-1.7243,-1.7152,-1.7152,-1.7153,0,-1.7101,-1.7119,-1.7111,-1.7118,-1.7117,-1.7129,-1.7135,-1.7115,-1.7122,-1.7121,-1.7136,-1.7146,-1.7153,-1.7174,-1.7165,-1.7173,-1.7164,-1.7197,-1.7165,-1.717,-1.7165,-1.7164,-1.7165,-1.7204,-1.7205,-1.7206,-1.7206,0,-1.7182,-1.7173,-1.7182,-1.7188,-1.7195,-1.7199,-1.7201,-1.7208,-1.7187,-1.7196,-1.7208,-1.7213,-1.7224,-1.7235,-1.724,-1.7238,-1.7219,-1.7216,-1.7223,-1.7229,-1.7234,-1.7232,-1.7131,-1.7214,-1.7214,-1.7213,-1.7213,-1.7212,-1.7244,-1.7258,-1.7255,-1.7265,-1.7264,-1.7266,-1.7278,-1.727,-1.7279,-1.7286,-1.7274,-1.7289,-1.7287,-1.7292,-1.7292,-1.7304,-1.729,-1.73,-1.7302,-1.7305,-1.7309,-1.7232,-1.7305,-1.7304,-1.7304,-1.7304,-1.7304,0,-1.7324,-1.732,-1.7329,-1.7332,-1.734,-1.732,-1.7321,-1.7329,-1.7342,-1.7342,-1.7349,-1.7362,-1.7372,-1.7363,-1.7371,-1.7382,-1.7373,-1.7385,-1.7384,-1.7384,-1.7321,-1.7315,-1.7391,-1.7391,-1.7391,-1.7391,-1.7391,-1.7391,-1.7366,-1.739,-1.7381,-1.7403,-1.7399,-1.7413,-1.7415,-1.7417,-1.7416,-1.7432,-1.744,-1.7433,-1.7429,-1.7437,-1.7445,-1.7442,-1.7446,-1.746,-1.7455,-1.7397,-1.7388,-1.738,-1.7374,-1.7461,-1.7462,-1.7516,-1.7516,-1.7517]},{"header":{"parameterUnit":"m.s-1","parameterCategory":1,"la1":30.2991,"la2":30.254,"lo1":-89.0895,"lo2":-89.0444,"dy":0.0017,"dx":0.0017,"nx":28,"ny":28,"refTime":"2024-10-16T21:00:00:Z","depth":0,"parameterNumber":3,"parameterNumberName":"V-component_of_WINDS"},"data":[0,0,0,0,0,0,0,0,0,0,0,0,0,0,0,0,0,0,0,0,0,0,0,0,0,0,0,0,0,0,0,0,0,0,0,0,0,0,0,0,0,0,0,0,0,0,0,0,0,0,0,0,0,0,0,0,0,0,-7.2579,-7.2579,0,-7.264,-7.2641,-7.2641,-7.2583,-7.2581,-7.2578,-7.2576,-7.2633,-7.2637,-7.264,0,0,0,0,0,0,0,0,0,0,0,0,0,-7.2406,-7.241,-7.2579,-7.258,-7.258,-7.264,-7.2641,-7.2642,-7.2583,-7.2581,-7.2578,-7.2575,-7.2632,-7.2636,-7.2641,0,0,0,0,0,0,0,0,0,0,0,0,0,-7.2476,-7.2411,-7.2579,-7.2559,-7.2557,-7.264,-7.2641,-7.2642,-7.2584,-7.2581,-7.2577,-7.2574,-7.2631,-7.2636,-7.2641,-7.2745,0,0,-7.2658,-7.2661,0,0,0,0,0,0,0,0,-7.2472,-7.2482,-7.2561,-7.256,-7.2559,-7.26,-7.2601,-7.2676,-7.2585,-7.2574,-7.2576,-7.2572,-7.2625,-7.2631,-7.2649,-7.2747,-7.275,-7.2659,-7.2662,-7.2664,-7.2666,0,0,0,0,0,0,0,-7.2467,-7.2479,-7.2603,-7.2562,-7.2561,-7.2545,-7.2551,-7.2615,-7.2618,-7.2574,-7.257,-7.2579,-7.2624,-7.2644,-7.265,-7.2751,-7.2659,-7.2663,-7.2667,-7.2669,-7.2937,-7.2941,0,0,0,0,0,0,-7.2465,-7.2475,-7.2601,-7.2605,-7.2506,-7.2551,-7.2558,-7.2591,-7.2617,-7.2618,-7.2582,-7.2576,-7.2637,-7.2644,-7.2652,-7.2775,-7.2664,-7.267,-7.2673,-7.2933,-7.2938,-7.2942,0,0,0,0,0,0,-7.2462,-7.2477,-7.2598,-7.2539,-7.2553,-7.2558,-7.2595,-7.2594,-7.2614,-7.2623,-7.2622,-7.2603,-7.2634,-7.2644,-7.2723,-7.2776,-7.2672,-7.2677,-7.2929,-7.2935,-7.294,-7.3023,0,0,0,0,0,0,-7.2457,-7.2476,-7.2516,-7.254,-7.2557,-7.267,-7.2598,-7.2597,-7.2625,-7.2618,-7.2642,-7.2643,-7.2632,-7.2715,-7.2728,-7.2782,-7.2681,-7.2924,-7.2931,-7.2938,-7.3015,-7.303,-7.3044,0,0,0,0,0,-7.2451,-7.2536,-7.2519,-7.2534,-7.2608,-7.2673,-7.2682,-7.267,-7.2629,-7.2669,-7.2675,-7.2642,-7.2769,-7.2723,-7.2738,-7.2794,-7.292,-7.2929,-7.2938,-7.3009,-7.3027,-7.3043,0,0,0,0,0,0,-7.2515,-7.2539,-7.252,-7.2615,-7.2643,-7.2663,-7.2713,-7.269,-7.2728,-7.2719,-7.2701,-7.2707,-7.279,-7.28,-7.2749,-7.2896,-7.2838,-7.285,-7.2887,-7.2905,-7.2919,-7.2914,-7.2686,0,0,0,0,0,-7.2541,-7.2594,-7.2611,-7.2693,-7.2708,-7.2709,-7.2736,-7.2725,-7.2752,-7.2763,-7.2773,-7.2799,-7.2845,-7.2875,-7.2917,-7.3016,-7.302,-7.3062,-7.3076,-7.3088,-7.3099,-7.3152,-7.317,-7.297,-7.297,-7.297,0,0,-7.2594,-7.2613,-7.2647,-7.2707,-7.2727,-7.2781,-7.2719,-7.2778,-7.2817,-7.2771,-7.2846,-7.2855,-7.2883,-7.2972,-7.3012,-7.2983,-7.3155,-7.3099,-7.3108,-7.3112,-7.3162,-7.3181,-7.3198,-7.2976,-7.2975,-7.2974,0,0,-7.2718,-7.2738,-7.281,-7.2832,-7.2864,-7.2864,-7.2881,-7.2905,-7.291,-7.2986,-7.2953,-7.2998,-7.3077,-7.3098,-7.312,-7.3254,-7.3225,-7.3268,-7.3342,-7.3394,-7.341,-7.3424,-7.3471,-7.3489,-7.3278,-7.3278,-7.3278,0,-7.2779,-7.2861,-7.2849,-7.2912,-7.2938,-7.2901,-7.2973,-7.2994,-7.3037,-7.3056,-7.3023,-7.3123,-7.3138,-7.3233,-7.3266,-7.3284,-7.3302,-7.3264,-7.3409,-7.3423,-7.3435,-7.3481,-7.3499,-7.3283,-7.3283,-7.3282,-7.3282,0,-7.2935,-7.2992,-7.3045,-7.3091,-7.3124,-7.319,-7.3187,-7.3221,-7.3207,-7.321,-7.3288,-7.3306,-7.3352,-7.3373,-7.3359,-7.3465,-7.3447,-7.3412,-7.3353,-7.346,-7.3502,-7.3519,-7.329,-7.3289,-7.3287,-7.3286,0,0,-7.31,-7.314,-7.316,-7.318,-7.3214,-7.3256,-7.3321,-7.3368,-7.3398,-7.3429,-7.3482,-7.3551,-7.352,-7.3544,-7.3531,-7.3577,-7.3683,-7.3537,-7.3537,-7.3563,-7.3801,-7.3827,-7.3848,-7.3664,-7.3667,-7.367,-7.3799,0,-7.3225,-7.334,-7.3332,-7.3439,-7.3492,-7.3458,-7.3514,-7.354,-7.3545,-7.3589,-7.3593,-7.3642,-7.3597,-7.3611,-7.3655,-7.3661,-7.373,-7.3651,-7.3712,-7.3715,-7.3707,-7.387,-7.3897,-7.4018,-7.3815,-7.3818,-7.382,0,-7.3387,-7.3427,-7.3541,-7.3567,-7.3589,-7.364,-7.3683,-7.3725,-7.3754,-7.3754,-7.3782,-7.3762,-7.3826,-7.3766,-7.3854,-7.38,-7.3825,-7.3831,-7.3836,-7.384,-7.3774,-7.3879,-7.4056,-7.4074,-7.3846,-7.3844,-7.3842,0,-7.3496,-7.3578,-7.3657,-7.3676,-7.3709,-7.3745,-7.376,-7.3785,-7.3815,-7.3851,-7.387,-7.3913,-7.3936,-7.3969,-7.3961,-7.3919,-7.4051,-7.399,-7.4052,-7.4052,-7.4081,-7.4079,-7.4264,-7.4097,-7.4097,-7.4096,-7.4096,0,-7.3637,-7.3708,-7.3707,-7.3756,-7.3834,-7.3823,-7.39,-7.391,-7.3933,-7.3982,-7.3955,-7.4,-7.3988,-7.4033,-7.4027,-7.41,-7.411,-7.4112,-7.4109,-7.4114,-7.4114,-7.413,-7.4121,-7.4101,-7.41,-7.4099,-7.4098,0,-7.3772,-7.3775,-7.3859,-7.3884,-7.3892,-7.3949,-7.3969,-7.4014,-7.4017,-7.4079,-7.4093,-7.4097,-7.4149,-7.4145,-7.4202,-7.4199,-7.4289,-7.4277,-7.4281,-7.4278,-7.434,-7.4334,-7.4541,-7.4568,-7.4384,-7.4385,-7.4387,0,-7.3862,-7.3917,-7.3949,-7.3981,-7.3999,-7.405,-7.4081,-7.4072,-7.4104,-7.4141,-7.4182,-7.4232,-7.4271,-7.4355,-7.4362,-7.4406,-7.4394,-7.4464,-7.44,-7.4404,-7.4395,-7.4392,-7.4398,-7.4476,-7.4478,-7.448,-7.4481,0,-7.4021,-7.402,-7.4066,-7.4114,-7.4152,-7.4187,-7.422,-7.4247,-7.4241,-7.4279,-7.4333,-7.4364,-7.4424,-7.4474,-7.4516,-7.4529,-7.4504,-7.4502,-7.4518,-7.4524,-7.4524,-7.4525,-7.4315,-7.4497,-7.4495,-7.4494,-7.4493,-7.4493,-7.4137,-7.4184,-7.4214,-7.4267,-7.4291,-7.4323,-7.4367,-7.4377,-7.4422,-7.4472,-7.4463,-7.4524,-7.4551,-7.4605,-7.4623,-7.4669,-7.4644,-7.4668,-7.4674,-7.468,-7.4687,-7.4517,-7.4676,-7.4676,-7.4676,-7.4675,-7.4675,0,-7.4295,-7.4313,-7.4362,-7.441,-7.4451,-7.4427,-7.4462,-7.4497,-7.4552,-7.458,-7.462,-7.4682,-7.4731,-7.4742,-7.4788,-7.4823,-7.4813,-7.4835,-7.4832,-7.4836,-7.4707,-7.4688,-7.4843,-7.4843,-7.4843,-7.4843,-7.4843,-7.4843,-7.4382,-7.446,-7.4463,-7.4553,-7.457,-7.4632,-7.4654,-7.4683,-7.4705,-7.4777,-7.4818,-7.4826,-7.4847,-7.4895,-7.4938,-7.494,-7.4958,-7.4985,-7.4982,-7.4862,-7.4845,-7.4829,-7.4811,-7.4989,-7.4989,-7.5107,-7.5108,-7.5109]}]]